Weather reports worldwide

Advertisment
Ukiah, ca, United States of America (2074944): temperature & dewpoint: 11.08.2019 18:00:00 - 17.08.2019 18:00:00 (PDT)Ukiah, ca, United States of America (2074944): wind speed: 11.08.2019 18:00:00 - 17.08.2019 18:00:00 (PDT)Ukiah, ca, United States of America (2074944): wind direction: 11.08.2019 18:00:00 - 17.08.2019 18:00:00 (PDT)Ukiah, ca, United States of America (2074944): reduced air pressure: 11.08.2019 18:00:00 - 17.08.2019 18:00:00 (PDT)Ukiah, ca, United States of America (2074944): visibility: 11.08.2019 18:00:00 - 17.08.2019 18:00:00 (PDT)
Date & Time tt [°C] td [°C] ff [km/h] ff [kn] dd ppp [hPa] vv [km]
17.08.2019 18:00:00 32,2 13,9 15 8 SSE 1005,1 16
17.08.2019 17:00:00 33,3 12,8 21 11 SSE 1004,9 16
17.08.2019 16:00:00 33,9 12,2 18 10 SSE 1005,1 16
17.08.2019 15:00:00 33,3 12,2 18 10 SE 1005,9 16
17.08.2019 14:00:00 32,2 12,2 18 10 SE 1006,5 16
17.08.2019 13:00:00 30,6 11,1 15 8 SSE 1007,2 16
17.08.2019 12:00:00 28,3 10,6 11 6 SSE 1007,9 16
17.08.2019 11:00:00 25,6 10,6 11 6 SE 1008,5 16
17.08.2019 10:00:00 22,2 10,6 5 3 - 1008,6 16
17.08.2019 09:00:00 19,4 10,6 9 5 SSE 1008,6 16
17.08.2019 08:00:00 17,2 10,6 5 3 ESE 1008,6 16
17.08.2019 07:00:00 15,6 10,6 0 0 N 1008,3 16
17.08.2019 06:00:00 16,1 10,6 0 0 N 1008,0 16
17.08.2019 05:00:00 16,1 10,6 0 0 N 1007,7 16
17.08.2019 04:00:00 16,7 11,1 0 0 N 1007,6 16
17.08.2019 03:00:00 17,8 10,6 0 0 N 1007,5 16
17.08.2019 02:00:00 18,9 11,1 0 0 N 1007,6 16
17.08.2019 01:00:00 20,6 10,6 0 0 N 1008,1 16
17.08.2019 00:00:00 22,2 10,0 0 0 N 1008,1 16
16.08.2019 23:00:00 23,9 10,0 5 3 SW 1008,1 16
16.08.2019 22:00:00 25,0 10,0 0 0 N 1008,0 16
16.08.2019 21:00:00 27,2 10,0 5 3 SW 1007,8 16
16.08.2019 20:00:00 28,9 10,0 8 4 S 1007,5 16
16.08.2019 19:00:00 34,4 9,4 8 4 - 1007,2 16
16.08.2019 18:00:00 36,1 9,4 16 9 W 1007,0 16
16.08.2019 17:00:00 36,7 10,6 26 14 W 1007,0 16
16.08.2019 16:00:00 38,3 10,6 16 9 W 1007,2 16
16.08.2019 15:00:00 38,9 8,3 9 5 - 1007,4 16
16.08.2019 14:00:00 38,3 7,8 9 5 - 1008,1 16
16.08.2019 13:00:00 36,1 12,2 8 4 SE 1008,9 16
16.08.2019 12:00:00 33,3 10,0 5 3 ESE 1010,0 16
16.08.2019 11:00:00 31,7 11,1 8 4 N 1010,6 16
16.08.2019 10:00:00 27,8 11,7 0 0 N 1010,9 16
16.08.2019 09:00:00 24,4 13,3 5 3 - 1011,0 13
16.08.2019 08:00:00 20,6 12,8 0 0 N 1011,0 16
16.08.2019 07:00:00 17,8 12,8 0 0 N 1010,9 16
16.08.2019 06:00:00 19,4 12,8 0 0 N 1010,4 16
16.08.2019 05:00:00 18,9 12,8 0 0 N 1010,4 16
16.08.2019 04:00:00 20,6 12,8 0 0 N 1010,1 16
16.08.2019 03:00:00 21,1 12,8 0 0 N 1010,1 16
16.08.2019 02:00:00 21,7 12,8 0 0 N 1010,2 16
16.08.2019 01:00:00 23,3 12,8 0 0 N 1010,5 16
16.08.2019 00:00:00 25,0 12,2 0 0 N 1010,5 16
15.08.2019 23:00:00 25,6 12,2 0 0 N 1010,6 16
15.08.2019 22:00:00 27,8 12,2 0 0 N 1010,6 16
15.08.2019 21:00:00 29,4 10,6 0 0 N 1010,1 16
15.08.2019 20:00:00 33,3 11,7 0 0 N 1009,6 16
15.08.2019 19:00:00 36,7 11,7 8 4 ENE 1009,3 16
15.08.2019 18:00:00 38,3 7,8 15 8 W 1009,4 16
15.08.2019 17:00:00 39,4 7,2 15 8 WNW 1009,7 16
15.08.2019 16:00:00 40,0 10,6 21 11 NNW 1009,9 16
15.08.2019 15:00:00 40,6 11,7 21 11 N 1010,4 16
15.08.2019 14:00:00 40,0 8,9 8 4 ENE 1011,0 16
15.08.2019 13:00:00 36,7 12,2 5 3 ESE 1011,7 16
15.08.2019 12:00:00 34,4 12,2 5 3 - 1012,7 16
15.08.2019 11:00:00 30,6 12,8 8 4 NE 1013,5 16
15.08.2019 10:00:00 27,8 13,3 0 0 N 1013,8 16
15.08.2019 09:00:00 24,4 13,9 0 0 N 1014,0 16
15.08.2019 08:00:00 21,7 13,3 0 0 N 1014,1 16
15.08.2019 07:00:00 18,3 13,3 0 0 N 1014,1 16
15.08.2019 06:00:00 17,8 13,3 0 0 N 1013,7 16
15.08.2019 05:00:00 18,3 13,3 0 0 N 1013,6 16
15.08.2019 04:00:00 19,4 13,3 0 0 N 1013,7 16
15.08.2019 03:00:00 20,0 13,9 0 0 N 1013,5 16
15.08.2019 02:00:00 21,1 13,9 0 0 N 1013,6 16
15.08.2019 01:00:00 23,3 12,8 0 0 N 1013,9 16
15.08.2019 00:00:00 25,0 12,8 0 0 N 1013,8 16
14.08.2019 23:00:00 25,6 12,2 0 0 N 1013,7 16
14.08.2019 22:00:00 27,2 11,7 0 0 N 1013,7 16
14.08.2019 21:00:00 29,4 11,7 0 0 N 1013,2 16
14.08.2019 20:00:00 32,8 10,6 9 5 NNE 1012,6 16
14.08.2019 19:00:00 35,6 8,3 8 4 W 1012,2 16
14.08.2019 18:00:00 37,2 8,9 13 7 W 1012,0 16
14.08.2019 17:00:00 38,3 8,9 13 7 W 1012,1 16
14.08.2019 16:00:00 38,3 9,4 16 9 NW 1012,4 16
14.08.2019 15:00:00 39,4 10,6 13 7 NNW 1012,6 16
14.08.2019 14:00:00 38,3 8,3 8 4 - 1012,9 16
14.08.2019 13:00:00 35,6 11,7 0 0 N 1013,6 16
14.08.2019 12:00:00 32,8 12,2 5 3 - 1014,3 16
14.08.2019 11:00:00 28,9 12,8 0 0 N 1015,1 16
14.08.2019 10:00:00 26,1 12,2 5 3 - 1015,3 16
14.08.2019 09:00:00 22,2 12,8 0 0 N 1015,6 16
14.08.2019 08:00:00 18,9 12,2 0 0 N 1015,5 15
14.08.2019 07:00:00 16,7 11,7 0 0 N 1015,1 16
14.08.2019 06:00:00 16,1 11,7 0 0 N 1014,7 16
14.08.2019 05:00:00 16,7 11,1 0 0 N 1014,4 16
14.08.2019 04:00:00 17,2 11,1 0 0 N 1014,3 16
14.08.2019 03:00:00 17,8 11,7 0 0 N 1014,3 16
14.08.2019 02:00:00 18,3 11,1 0 0 N 1014,4 16
14.08.2019 01:00:00 20,0 11,1 0 0 N 1014,6 16
14.08.2019 00:00:00 21,1 10,6 0 0 N 1014,5 16
13.08.2019 23:00:00 23,3 7,8 0 0 N 1014,5 16
13.08.2019 22:00:00 23,9 9,4 0 0 N 1014,2 16
13.08.2019 21:00:00 26,1 9,4 0 0 N 1013,6 16
13.08.2019 20:00:00 28,9 7,8 5 3 W 1013,0 16
13.08.2019 19:00:00 32,2 7,8 13 7 NNE 1012,5 16
13.08.2019 18:00:00 33,9 9,4 15 8 N 1012,4 16
13.08.2019 17:00:00 35,0 8,3 13 7 W 1012,4 16
13.08.2019 16:00:00 35,6 9,4 13 7 SW 1012,6 16
13.08.2019 15:00:00 35,6 11,1 11 6 N 1013,0 16
13.08.2019 14:00:00 35,6 11,1 8 4 E 1013,5 16
13.08.2019 13:00:00 32,2 11,7 9 5 - 1014,1 16
13.08.2019 12:00:00 30,0 11,7 0 0 N 1014,6 16
13.08.2019 11:00:00 27,2 11,7 8 4 ESE 1015,0 16
13.08.2019 10:00:00 23,9 11,1 0 0 N 1015,1 16
13.08.2019 09:00:00 20,6 11,1 0 0 N 1015,3 16
13.08.2019 08:00:00 16,7 11,1 0 0 N 1015,2 16
13.08.2019 07:00:00 13,9 10,6 0 0 N 1014,9 16
13.08.2019 06:00:00 14,4 10,6 5 3 E 1014,5 16
13.08.2019 05:00:00 14,4 10,6 0 0 N 1014,3 16
13.08.2019 04:00:00 15,6 10,6 0 0 N 1014,1 16
13.08.2019 03:00:00 15,6 10,6 0 0 N 1014,3 16
13.08.2019 02:00:00 16,1 10,6 0 0 N 1014,5 16
13.08.2019 01:00:00 16,7 10,0 0 0 N 1014,8 16
13.08.2019 00:00:00 19,4 8,9 0 0 N 1014,8 16
12.08.2019 23:00:00 19,4 7,8 0 0 N 1015,1 16
12.08.2019 22:00:00 21,1 7,2 9 5 S 1014,8 16
12.08.2019 21:00:00 23,3 7,2 8 4 S 1014,5 16
12.08.2019 20:00:00 26,1 6,1 11 6 N 1013,7 16
12.08.2019 19:00:00 29,4 7,2 13 7 N 1013,3 16
12.08.2019 18:00:00 31,1 3,3 13 7 NW 1013,1 16
12.08.2019 17:00:00 32,2 4,4 11 6 - 1013,2 16
12.08.2019 16:00:00 33,3 4,4 15 8 WNW 1013,2 16
12.08.2019 15:00:00 33,9 3,3 16 9 NW 1013,6 16
12.08.2019 14:00:00 33,9 2,8 16 9 NNW 1013,8 16
12.08.2019 13:00:00 32,2 7,2 8 4 - 1014,3 16
12.08.2019 12:00:00 28,9 11,1 5 3 - 1015,2 16
12.08.2019 11:00:00 25,6 11,1 5 3 E 1015,8 16
12.08.2019 10:00:00 23,3 11,1 0 0 N 1016,1 16
12.08.2019 09:00:00 19,4 11,7 0 0 N 1016,5 16
12.08.2019 08:00:00 16,1 10,6 0 0 N 1016,7 16
12.08.2019 07:00:00 13,3 10,0 0 0 N 1016,6 16
12.08.2019 06:00:00 13,3 10,0 0 0 N 1016,0 16
12.08.2019 05:00:00 13,9 10,0 0 0 N 1015,9 16
12.08.2019 04:00:00 15,0 10,0 0 0 N 1015,7 16
12.08.2019 03:00:00 15,0 10,0 0 0 N 1015,7 16
12.08.2019 02:00:00 16,1 10,6 0 0 N 1015,9 16
12.08.2019 01:00:00 17,2 10,0 0 0 N 1015,9 16
12.08.2019 00:00:00 17,2 10,0 0 0 N 1016,0 16
11.08.2019 23:00:00 19,4 8,3 0 0 N 1016,1 16
11.08.2019 22:00:00 21,1 8,3 0 0 N 1016,3 16
11.08.2019 21:00:00 22,8 7,8 13 7 NNE 1016,2 16
11.08.2019 20:00:00 23,9 6,7 15 8 N 1015,9 16
11.08.2019 19:00:00 27,2 5,6 5 3 - 1015,4 16
11.08.2019 18:00:00 28,3 6,1 16 9 NW 1015,2 16

tt = temperature
td = dewpoint
ff = wind speed
dd = wind direction
ppp = reduced air pressure
vv = visibility

Next stations